Temperature
1 1 1 1 2 2 1 1 1 2 2 2 2 1 2 2 1 1 2 2 2 2 2 3 3 4 4 4 4 4 4 4 4 4 4 4 4 4 4 4 4 4 4 4
-0 1 1 1 1 1 1 1 1 1 1 1 1 2 1 1 1 0 1 1 1 1 2 2 2 3 3 3 3 3 3 3 3 3 3 3 3 3 3 3 3 3 3 3
-1 -0 0 -0 -0 0 0 -0 0 0 0 0 0 0 0 0 0 0 0 0 1 1 1 1 2 2 2 3 3 3 3 3 3 3 3 3 3 3 3 3 3 3 3 3
-2 -1 -1 0 0 0 -0 -1 -1 -1 -1 -1 -0 -0 0 0 0 -0 -0 -0 0 0 1 1 1 1 2 2 2 2 2 2 2 2 2 3 3 3 3 3 3 2 3 2
-2 -2 -1 -1 -0 -1 -1 -1 -1 -1 -1 -1 -1 -1 -0 0 -0 -0 -0 -0 -0 0 0 1 1 1 1 1 1 1 2 2 2 2 2 2 2 2 2 2 2 2 2 2
-2 -2 -1 -1 -1 -1 -1 -2 -1 -2 -2 -2 -2 -2 -1 -1 -1 -1 -1 -1 -1 -0 0 0 0 0 0 0 1 1 1 1 1 1 1 2 2 2 2 2 2 2 1 1
-3 -2 -2 -2 -1 -1 -1 -1 -1 -2 -2 -2 -3 -2 -2 -2 -2 -1 -1 -1 -1 -1 -0 -0 -0 -0 -0 -0 0 0 0 1 1 1 1 1 1 1 1 1 1 1 1 1
-3 -3 -2 -2 -2 -2 -2 -2 -2 -2 -2 -3 -3 -3 -3 -3 -2 -2 -2 -2 -1 -1 -1 -1 -1 -1 -1 -1 -0 -0 -0 0 0 0 0 1 1 1 1 1 1 1 0 0
-3 -2 -2 -2 -2 -2 -2 -3 -3 -3 -3 -4 -4 -4 -4 -3 -3 -3 -3 -2 -2 -2 -2 -2 -1 -1 -1 -1 -1 -1 -1 -0 -0 -0 -0 -0 0 0 0 0 0 -0 -0 -0
-4 -4 -3 -3 -3 -3 -3 -3 -4 -4 -4 -4 -4 -4 -4 -4 -4 -4 -3 -3 -3 -3 -3 -2 -2 -2 -2 -2 -2 -1 -1 -1 -1 -1 -1 -1 -1 -1 -0 -0 -1 -1 -1 -1
-5 -4 -4 -3 -3 -4 -4 -4 -4 -4 -5 -5 -5 -5 -5 -5 -5 -4 -4 -4 -4 -3 -3 -3 -3 -2 -2 -2 -2 -2 -2 -1 -1 -1 -1 -1 -1 -1 -1 -1 -1 -1 -1 -1
-4 -4 -5 -5 -4 -5 -5 -5 -5 -5 -5 -5 -5 -6 -5 -5 -5 -5 -4 -4 -4 -4 -4 -3 -3 -3 -3 -3 -3 -3 -2 -2 -2 -2 -2 -2 -2 -2 -2 -2 -2 -2 -2 -2
-5 -5 -5 -5 -5 -5 -6 -6 -6 -6 -6 -6 -6 -6 -6 -6 -5 -5 -5 -5 -5 -5 -4 -4 -4 -4 -4 -4 -4 -3 -3 -3 -3 -2 -2 -2 -2 -2 -2 -2 -2 -2 -3 -3
-6 -6 -6 -6 -6 -6 -6 -6 -6 -6 -6 -6 -6 -6 -6 -6 -6 -6 -6 -5 -5 -5 -5 -5 -4 -4 -4 -4 -4 -4 -4 -3 -3 -3 -3 -3 -3 -3 -3 -3 -3 -3 -3 -3
-6 -7 -7 -7 -7 -7 -7 -7 -7 -7 -7 -7 -6 -7 -6 -6 -6 -6 -6 -6 -6 -6 -5 -5 -5 -5 -5 -5 -4 -4 -4 -4 -4 -4 -4 -3 -3 -3 -3 -4 -4 -3 -3 -3
-7 -7 -7 -7 -7 -7 -7 -7 -8 -8 -7 -7 -7 -7 -7 -7 -7 -7 -6 -6 -6 -6 -6 -6 -5 -5 -5 -5 -5 -5 -5 -4 -4 -4 -4 -4 -4 -4 -4 -4 -4 -4 -4 -4
-8 -8 -8 -8 -8 -8 -8 -8 -8 -8 -8 -8 -8 -7 -7 -7 -7 -7 -7 -7 -7 -7 -6 -6 -6 -6 -5 -5 -5 -5 -5 -5 -5 -5 -5 -5 -5 -5 -4 -4 -4 -5 -5 -4
-8 -8 -8 -8 -9 -9 -9 -8 -8 -8 -8 -8 -8 -8 -8 -8 -8 -7 -7 -7 -7 -7 -7 -7 -6 -6 -6 -6 -6 -6 -6 -5 -5 -5 -5 -5 -5 -5 -5 -5 -5 -5 -5 -5
-8 -8 -9 -9 -9 -9 -9 -9 -8 -8 -8 -8 -8 -8 -8 -8 -8 -8 -8 -8 -8 -7 -7 -7 -7 -6 -6 -6 -6 -6 -6 -6 -6 -6 -6 -6 -6 -6 -6 -6 -6 -6 -6 -6
-9 -9 -9 -9 -9 -9 -9 -9 -9 -9 -9 -9 -9 -9 -9 -8 -8 -8 -8 -8 -8 -8 -8 -7 -7 -7 -7 -7 -7 -7 -7 -6 -6 -6 -6 -6 -6 -6 -6 -6 -6 -6 -6 -6
-9 -9 -9 -9 -9 -9 -9 -9 -9 -9 -9 -9 -9 -9 -9 -9 -9 -9 -9 -9 -8 -8 -8 -8 -8 -7 -7 -7 -7 -7 -7 -7 -7 -7 -7 -7 -7 -7 -7 -7 -7 -7 -7 -7
-9 -9 -9 -9 -9 -9 -10 -10 -10 -10 -10 -10 -10 -10 -10 -10 -9 -9 -9 -9 -9 -9 -8 -8 -8 -8 -8 -8 -8 -7 -7 -7 -7 -7 -7 -7 -7 -7 -7 -7 -7 -7 -7 -7
-9 -9 -9 -9 -10 -10 -10 -10 -10 -10 -10 -10 -10 -10 -10 -10 -10 -10 -10 -9 -9 -9 -9 -9 -9 -8 -8 -8 -8 -8 -8 -8 -8 -8 -8 -7 -7 -7 -7 -7 -7 -8 -7 -7
-10 -10 -10 -10 -10 -10 -10 -10 -10 -10 -10 -10 -11 -11 -11 -10 -10 -10 -10 -10 -10 -9 -9 -9 -9 -9 -9 -9 -9 -8 -8 -8 -8 -8 -8 -8 -8 -8 -8 -8 -8 -8 -8 -8
-10 -10 -10 -10 -10 -10 -11 -10 -10 -10 -10 -11 -11 -11 -11 -11 -11 -10 -10 -10 -10 -10 -10 -10 -9 -9 -9 -9 -9 -9 -9 -9 -9 -9 -8 -8 -8 -8 -8 -8 -8 -8 -8 -8
-10 -10 -11 -11 -11 -11 -11 -11 -11 -11 -11 -11 -11 -11 -11 -11 -11 -10 -10 -10 -10 -10 -10 -10 -10 -10 -10 -9 -9 -9 -9 -9 -9 -9 -9 -9 -9 -9 -9 -9 -9 -9 -9 -9
-11 -11 -11 -11 -11 -11 -11 -11 -11 -11 -12 -12 -11 -11 -11 -11 -11 -11 -11 -11 -11 -10 -10 -10 -10 -10 -10 -10 -10 -9 -9 -9 -9 -9 -9 -9 -9 -9 -9 -9 -9 -9 -9 -9
Wind_Speed
9 9 7 9 10 7 8 8 9 10 11 11 9 9 8 6 6 7 7 7 7 7 6 6 5 4 3 3 2 2 2 2 3 3 2 2 2 2 2 2 3 3 4 3
7 7 8 11 11 10 10 9 10 12 12 8 8 6 7 6 6 6 7 8 8 7 7 6 6 5 4 4 3 2 2 3 2 1 2 2 2 2 2 2 2 3 4 4
5 5 6 8 6 7 4 4 5 8 9 8 7 8 8 7 6 7 8 8 7 7 7 6 6 5 5 4 3 2 2 2 2 2 2 3 2 2 3 3 3 3 4 4
4 3 7 6 2 3 4 4 4 4 6 7 8 8 7 5 5 7 8 8 7 7 8 6 5 5 5 4 2 2 2 2 2 2 2 2 3 3 3 3 3 3 4 4
3 5 8 5 3 2 4 6 3 5 8 9 8 6 5 4 5 6 7 7 7 7 7 6 5 4 4 4 3 2 3 3 3 3 3 3 4 4 3 3 3 3 4 4
3 4 6 4 4 4 1 5 4 5 7 8 6 6 7 8 9 9 8 7 8 7 6 5 4 3 3 4 3 4 4 3 3 3 3 4 4 4 3 3 3 3 3 4
6 7 7 5 5 2 1 5 7 6 6 6 5 7 9 10 9 8 8 9 7 7 6 5 4 3 4 4 5 5 3 3 3 3 3 4 3 3 3 3 3 3 3 3
4 6 7 3 2 1 5 6 6 6 7 7 9 10 10 10 9 9 9 9 7 6 6 5 4 3 4 6 6 4 3 3 3 3 3 2 3 3 3 3 3 3 3 2
6 6 4 2 3 4 4 6 7 8 9 9 10 10 10 10 9 9 8 8 7 6 7 6 4 3 5 6 5 4 3 3 3 3 2 2 3 3 3 3 3 3 3 3
5 7 7 7 5 5 6 7 9 9 10 9 10 10 10 9 9 9 8 8 7 6 7 7 6 5 5 5 4 3 3 3 2 2 2 2 2 3 3 4 4 4 4 4
6 6 7 5 5 7 8 8 9 9 8 8 8 10 9 9 10 9 9 7 6 6 7 7 6 6 5 4 4 3 3 3 2 2 2 2 2 3 4 4 5 5 5 5
6 5 6 9 8 8 8 9 9 10 10 8 8 9 9 9 9 8 8 7 7 6 6 7 6 6 5 4 3 2 2 2 2 2 2 2 1 1 2 2 4 5 4 4
5 6 7 9 8 7 8 9 9 9 9 10 9 8 8 9 8 8 8 7 7 6 7 6 6 5 5 4 3 2 3 2 2 2 2 2 2 2 1 1 1 1 3 3
5 5 6 6 8 9 9 9 9 8 8 7 7 8 7 8 8 8 7 7 6 6 6 5 5 5 4 3 3 3 2 3 2 2 2 2 2 2 2 2 1 0 0 2
6 6 7 9 9 9 9 8 9 9 9 9 7 8 8 8 8 8 7 6 5 5 5 5 5 5 4 3 3 3 2 2 2 2 2 2 2 2 2 2 1 1 0 1
8 8 7 8 9 10 10 9 9 10 10 9 9 9 8 8 7 7 6 5 5 5 5 5 5 5 4 3 3 2 2 2 2 1 1 1 1 1 1 1 1 1 1 1
7 8 9 10 11 11 10 9 9 9 9 9 9 9 8 7 7 6 6 5 5 5 5 4 5 5 4 3 2 2 1 1 1 1 0 0 1 1 1 2 2 1 1 1
6 7 8 9 9 10 10 10 9 8 8 9 9 8 7 7 6 6 6 5 5 5 5 4 4 4 4 3 2 2 1 1 1 0 0 1 1 1 1 1 2 1 1 1
6 7 7 8 8 8 8 8 8 8 7 7 7 7 6 6 6 6 5 5 5 5 5 5 6 5 4 3 3 1 1 1 1 1 1 1 1 1 1 1 1 1 1 1
7 7 7 8 7 7 7 8 7 7 7 6 6 6 6 6 6 6 5 4 4 4 4 5 4 4 3 3 3 1 1 1 1 1 1 1 1 1 1 1 1 1 1 1
8 8 8 8 8 8 7 7 7 7 7 6 6 6 6 7 6 5 5 5 5 5 5 5 4 3 3 3 3 2 2 2 2 1 1 1 1 1 1 1 1 1 1 1
7 7 7 7 7 7 7 6 6 6 6 6 6 6 6 6 7 6 5 4 5 7 5 4 3 4 4 4 3 3 3 3 2 2 1 1 1 1 1 1 0 0 0 1
6 6 6 7 6 7 7 6 6 5 6 6 6 7 6 6 5 5 6 5 5 6 5 4 5 7 7 5 3 3 3 3 2 2 1 1 1 1 1 0 0 0 0 0
6 6 6 6 5 5 6 7 6 6 6 5 6 6 6 5 5 5 4 7 9 8 5 6 8 8 8 4 4 3 3 3 2 2 2 1 1 1 1 1 1 1 0 0
5 5 5 5 5 5 5 6 6 6 6 5 6 7 5 4 4 5 5 6 8 8 5 7 9 9 6 4 4 3 3 3 2 2 2 2 2 1 1 1 1 1 1 1
4 4 4 4 4 4 4 4 4 5 5 5 6 6 6 5 5 5 5 6 7 8 6 5 5 6 4 4 4 4 3 3 4 3 3 2 2 2 2 2 2 1 1 1
4 4 4 4 4 4 4 4 4 5 5 5 5 6 6 6 5 6 6 5 5 5 5 5 4 4 4 4 4 4 4 3 3 3 3 2 2 2 2 2 2 2 2 2
Wind_Direction
260 270 265 260 265 246 228 229 239 257 263 280 298 303 311 318 329 334 335 337 335 333 330 331 330 323 306 281 262 236 222 226 237 236 230 229 228 229 228 222 222 213 205 208
279 270 271 272 266 253 248 249 252 266 273 284 294 305 313 315 320 318 318 320 324 325 325 321 316 314 308 296 276 244 230 242 246 235 229 230 228 222 223 229 228 212 207 204
273 299 309 270 249 231 234 236 232 250 268 308 317 315 308 305 307 303 307 311 312 314 308 304 304 305 300 291 287 255 241 249 248 237 236 238 234 217 220 227 227 222 216 206
273 315 254 252 231 216 234 254 238 259 292 301 292 294 295 292 298 305 307 309 309 311 311 307 306 311 311 304 290 262 253 253 251 247 249 245 233 226 226 223 222 225 223 215
232 256 271 287 293 266 244 270 257 278 297 309 316 315 303 304 313 301 299 301 301 301 302 301 302 308 316 312 302 275 264 259 255 249 249 242 236 234 231 222 225 227 222 213
224 245 255 266 301 312 248 273 304 312 305 317 340 319 300 319 320 315 314 311 310 312 311 306 304 307 310 306 295 277 271 268 261 248 242 242 240 240 235 219 224 227 227 220
233 243 263 277 311 29 183 276 320 314 304 305 286 271 291 307 310 309 308 310 310 312 311 304 306 304 300 300 291 288 282 277 271 259 250 244 240 240 227 217 211 219 226 229
217 236 256 307 25 203 261 299 307 309 305 296 291 293 297 301 305 310 312 313 315 315 314 313 312 308 300 295 297 299 285 274 272 266 258 245 227 234 221 205 199 209 217 230
212 235 268 281 259 281 306 303 304 305 301 297 295 296 300 302 304 305 305 306 310 311 313 312 309 297 292 297 302 300 290 276 275 271 255 236 219 218 215 205 201 211 212 222
258 267 286 298 297 308 311 301 301 299 298 298 295 297 300 303 305 305 305 306 310 312 311 307 309 303 292 297 299 293 285 278 271 260 255 243 234 223 213 209 207 212 214 219
262 285 309 297 296 310 313 311 310 309 301 295 294 296 297 299 300 301 303 304 303 301 302 299 301 304 304 301 298 291 287 287 278 262 239 232 236 235 234 230 220 217 217 212
259 280 285 290 298 305 307 309 309 309 308 304 294 293 296 296 296 297 298 303 303 302 301 299 298 299 302 301 296 284 289 288 281 259 242 219 219 284 294 263 247 232 221 217
273 295 284 286 299 306 305 305 306 305 302 304 304 299 297 297 300 299 297 301 300 298 300 299 298 298 303 305 302 282 270 274 274 268 250 226 209 205 234 1 27 177 185 193
305 315 302 307 309 312 311 309 309 309 307 304 304 307 305 302 304 303 299 297 296 297 300 299 299 299 305 306 301 293 283 275 269 253 251 232 214 210 197 183 193 291 147 160
323 315 296 303 310 315 318 318 319 319 320 319 316 313 311 308 305 303 303 304 304 304 304 306 306 306 310 306 300 293 288 279 271 264 254 240 211 190 181 175 175 175 86 110
314 313 309 312 313 317 321 320 317 315 317 317 319 318 314 309 307 309 309 309 305 303 304 306 305 310 318 314 311 303 293 287 287 271 249 226 188 168 163 158 156 151 154 151
317 318 319 318 317 315 313 311 308 308 311 314 315 316 317 319 320 320 319 317 313 308 307 308 310 317 323 326 326 318 316 306 317 346 100 168 152 149 146 146 150 157 183 184
290 289 293 298 303 308 311 313 312 310 310 311 317 320 324 326 322 320 322 327 334 336 335 333 332 335 341 344 342 336 332 321 328 33 61 68 87 106 128 140 148 146 124 115
312 310 312 312 311 309 310 313 315 314 315 319 322 325 327 329 328 327 329 336 341 339 336 341 349 355 353 351 355 360 359 6 17 33 55 75 62 67 86 107 121 123 121 113
329 329 328 327 328 327 324 325 327 327 328 330 333 336 340 340 339 341 347 348 341 326 328 345 355 358 358 359 5 24 30 28 31 36 45 61 72 66 62 63 76 87 100 111
328 329 330 331 331 331 331 332 335 335 337 341 343 341 340 340 343 347 352 350 344 351 355 356 2 2 5 11 15 33 36 30 28 31 39 50 62 58 54 55 60 74 94 95
324 325 327 329 331 332 335 337 339 340 343 347 348 348 349 349 350 353 353 344 340 352 1 359 5 11 16 21 30 38 39 33 24 21 27 33 48 54 48 49 51 47 64 83
318 319 322 326 327 325 331 340 345 346 347 348 348 350 350 346 347 350 347 346 351 360 5 4 10 16 21 29 35 36 33 26 18 14 13 12 15 26 39 35 20 33 53 42
320 323 324 326 332 340 344 344 346 349 350 349 351 350 349 349 351 352 343 347 359 6 14 10 15 19 23 32 29 27 23 17 12 10 6 10 14 13 19 22 14 8 10 8
321 324 330 340 344 341 337 340 346 352 356 357 356 355 354 352 345 341 347 355 1 9 12 10 14 18 23 24 22 19 14 7 7 10 10 11 5 1 2 359 353 341 336 326
325 327 327 328 328 330 335 341 346 347 348 349 351 352 353 354 353 352 354 359 5 8 9 5 4 9 14 13 12 10 7 0 2 7 6 2 359 357 354 354 348 336 324 315
328 332 335 340 343 344 344 344 345 344 345 344 342 346 351 353 356 359 1 3 5 7 6 5 6 8 9 9 7 6 3 0 359 359 358 357 352 346 343 339 331 323 318 309
Height
1505 1502 1501 1499 1497 1496 1497 1495 1495 1486 1483 1478 1477 1475 1473 1471 1469 1467 1465 1463 1461 1459 1458 1457 1456 1455 1455 1455 1455 1455 1456 1456 1457 1457 1458 1459 1460 1461 1462 1463 1464 1465 1466 1466
1505 1499 1498 1495 1492 1491 1490 1489 1488 1484 1480 1476 1475 1474 1471 1469 1467 1465 1463 1461 1459 1458 1456 1455 1454 1453 1452 1452 1452 1452 1452 1453 1453 1454 1454 1455 1456 1457 1458 1459 1460 1461 1461 1462
1505 1501 1498 1493 1489 1487 1487 1485 1484 1482 1479 1475 1474 1471 1469 1467 1465 1463 1461 1459 1457 1455 1454 1453 1452 1450 1449 1449 1449 1449 1449 1449 1450 1450 1451 1451 1452 1453 1454 1454 1455 1456 1457 1458
1507 1504 1503 1488 1482 1481 1482 1481 1480 1478 1476 1474 1472 1468 1466 1465 1463 1460 1459 1456 1454 1453 1451 1450 1449 1448 1447 1446 1446 1446 1446 1446 1446 1447 1447 1448 1448 1449 1450 1450 1451 1452 1453 1454
1507 1504 1492 1486 1482 1481 1481 1479 1477 1475 1473 1471 1468 1465 1462 1461 1460 1459 1457 1454 1452 1450 1448 1446 1445 1445 1444 1443 1442 1442 1442 1442 1442 1443 1443 1443 1444 1445 1445 1446 1446 1447 1448 1449
1504 1501 1491 1484 1480 1477 1479 1479 1474 1472 1471 1469 1467 1467 1461 1459 1457 1454 1453 1451 1449 1446 1444 1443 1442 1441 1440 1439 1439 1438 1438 1438 1439 1439 1439 1439 1440 1441 1441 1442 1442 1443 1444 1445
1500 1497 1488 1482 1479 1477 1483 1479 1474 1472 1470 1468 1467 1465 1461 1457 1454 1451 1449 1447 1445 1443 1440 1439 1438 1437 1436 1436 1435 1435 1435 1435 1435 1435 1435 1435 1436 1436 1437 1437 1438 1439 1440 1441
1498 1496 1489 1480 1479 1481 1479 1475 1472 1470 1468 1466 1462 1459 1456 1453 1450 1447 1444 1442 1440 1438 1436 1435 1434 1434 1432 1432 1432 1431 1431 1430 1430 1430 1431 1431 1431 1432 1432 1433 1433 1434 1435 1436
1492 1487 1480 1478 1478 1477 1476 1473 1470 1468 1465 1462 1458 1455 1452 1448 1446 1443 1441 1438 1436 1434 1432 1431 1431 1430 1429 1428 1428 1427 1426 1426 1426 1426 1426 1427 1427 1427 1427 1428 1429 1429 1431 1431
1487 1480 1478 1477 1475 1474 1472 1470 1467 1464 1461 1457 1454 1450 1447 1444 1441 1439 1436 1434 1432 1430 1428 1427 1426 1426 1425 1424 1423 1423 1422 1422 1422 1422 1422 1422 1422 1423 1423 1423 1424 1425 1426 1427
1484 1479 1476 1473 1473 1471 1468 1466 1462 1459 1456 1453 1450 1446 1443 1440 1437 1434 1432 1430 1429 1427 1425 1423 1422 1421 1421 1420 1419 1418 1418 1418 1418 1418 1418 1417 1418 1419 1419 1420 1421 1422 1423 1424
1480 1478 1477 1472 1469 1467 1464 1461 1458 1455 1451 1448 1446 1442 1439 1436 1433 1430 1428 1426 1424 1422 1421 1419 1418 1417 1417 1416 1415 1414 1414 1414 1414 1414 1414 1414 1414 1415 1415 1417 1418 1419 1420 1421
1477 1474 1472 1469 1466 1464 1461 1457 1454 1451 1447 1444 1441 1438 1435 1431 1429 1426 1424 1422 1420 1418 1417 1415 1414 1413 1413 1412 1411 1411 1411 1410 1410 1410 1410 1410 1411 1411 1412 1413 1414 1416 1416 1417
1474 1472 1468 1465 1463 1460 1457 1453 1450 1447 1443 1440 1437 1434 1431 1427 1424 1422 1420 1418 1416 1415 1413 1412 1411 1410 1410 1409 1408 1408 1407 1407 1407 1407 1407 1408 1408 1409 1409 1410 1410 1411 1413 1414
1470 1469 1466 1463 1459 1456 1453 1449 1446 1442 1439 1435 1433 1429 1426 1423 1420 1418 1416 1414 1413 1411 1410 1409 1408 1407 1407 1406 1405 1405 1404 1404 1404 1404 1404 1405 1405 1406 1407 1408 1409 1409 1410 1411
1467 1465 1462 1459 1456 1452 1449 1445 1442 1438 1435 1432 1429 1426 1423 1420 1417 1414 1412 1411 1409 1408 1407 1406 1405 1404 1404 1403 1403 1402 1402 1402 1402 1402 1402 1402 1403 1404 1405 1406 1407 1407 1408 1409
1465 1461 1458 1455 1452 1448 1445 1442 1439 1435 1432 1429 1426 1423 1420 1417 1414 1411 1409 1408 1407 1406 1405 1404 1403 1402 1401 1401 1400 1400 1400 1400 1400 1400 1400 1400 1401 1402 1403 1404 1405 1406 1407 1408
1463 1460 1457 1454 1450 1446 1442 1439 1436 1433 1430 1427 1424 1420 1417 1414 1411 1409 1407 1406 1405 1403 1403 1402 1401 1400 1400 1399 1399 1398 1398 1398 1398 1398 1398 1399 1400 1401 1402 1402 1403 1404 1405 1406
1459 1457 1454 1451 1447 1444 1440 1437 1433 1431 1428 1425 1422 1419 1416 1413 1410 1408 1406 1404 1403 1401 1401 1401 1400 1399 1398 1398 1397 1397 1397 1397 1397 1397 1398 1398 1399 1399 1400 1401 1402 1403 1404 1404
1457 1454 1451 1448 1445 1442 1438 1435 1432 1429 1426 1423 1420 1417 1414 1412 1409 1407 1405 1404 1402 1401 1401 1400 1399 1398 1397 1397 1397 1396 1396 1396 1396 1397 1397 1397 1398 1398 1399 1400 1401 1402 1402 1403
1455 1452 1449 1446 1443 1440 1437 1434 1431 1428 1425 1422 1420 1417 1414 1411 1409 1407 1405 1403 1402 1401 1400 1399 1399 1398 1397 1397 1396 1396 1396 1396 1396 1396 1396 1396 1397 1397 1398 1399 1400 1400 1401 1402
1454 1451 1448 1445 1442 1439 1436 1434 1431 1428 1425 1422 1419 1417 1414 1412 1410 1408 1406 1404 1403 1402 1400 1399 1399 1398 1397 1397 1397 1396 1396 1396 1396 1396 1396 1396 1396 1397 1397 1398 1398 1399 1400 1400
1453 1450 1447 1444 1441 1438 1436 1433 1430 1428 1425 1422 1420 1417 1415 1412 1410 1408 1406 1405 1403 1402 1401 1400 1399 1398 1398 1397 1397 1396 1396 1396 1396 1396 1396 1396 1396 1396 1397 1397 1398 1398 1399 1399
1452 1449 1446 1444 1441 1438 1435 1433 1430 1428 1425 1423 1420 1418 1415 1413 1411 1410 1408 1406 1404 1403 1402 1401 1400 1399 1398 1397 1397 1396 1396 1396 1396 1395 1395 1395 1396 1396 1396 1396 1397 1397 1398 1398
1450 1448 1445 1443 1440 1438 1435 1433 1430 1428 1425 1423 1421 1419 1416 1414 1412 1410 1408 1407 1405 1403 1402 1401 1400 1399 1398 1398 1397 1396 1396 1396 1396 1395 1395 1395 1395 1395 1395 1395 1396 1396 1396 1397
1449 1447 1445 1443 1441 1438 1435 1433 1430 1428 1426 1423 1421 1419 1417 1415 1413 1411 1409 1407 1406 1404 1403 1402 1401 1400 1399 1398 1397 1397 1396 1396 1396 1395 1395 1394 1394 1394 1394 1394 1395 1395 1395 1395
1449 1447 1445 1442 1440 1438 1436 1433 1431 1429 1426 1424 1422 1420 1418 1416 1414 1412 1410 1408 1407 1405 1404 1403 1402 1400 1399 1398 1398 1397 1396 1396 1395 1395 1394 1394 1394 1393 1393 1393 1393 1393 1393 1393